Satellite: CO-57
Catalog number: 27848
Epoch time:      09284.68850458
Element set:     637
Inclination:      098.7173 deg
RA of node:       291.2848 deg
Eccentricity:    0.0009622
Arg of perigee:   167.6217 deg
Mean anomaly:     192.5184 deg
Mean motion:   14.20459254 rev/day
Decay rate:        3.4e-07 rev/day^2
Epoch rev:           32576
Checksum:              349

Satellite: AO-51
Catalog number: 28375
Epoch time:      09285.54981769
Element set:     507
Inclination:      098.0545 deg
RA of node:       288.3310 deg
Eccentricity:    0.0084165
Arg of perigee:   128.2125 deg
Mean anomaly:     232.6678 deg
Mean motion:   14.40654611 rev/day
Decay rate:        8.0e-08 rev/day^2
Epoch rev:           27785
Checksum:              332

Satellite: CO-56
Catalog number: 28941
Epoch time:      09285.51775801
Element set:     516
Inclination:      098.1160 deg
RA of node:       123.7786 deg
Eccentricity:    0.0032727
Arg of perigee:   037.9592 deg
Mean anomaly:     322.3981 deg
Mean motion:   16.11459230 rev/day
Decay rate:    4.21528e-03 rev/day^2
Epoch rev:           20593
Checksum:              328

Satellite: GENESAT1
Catalog number: 29655
Epoch time:      09285.83908173
Element set:     830
Inclination:      040.0226 deg
RA of node:       164.8199 deg
Eccentricity:    0.0005527
Arg of perigee:   299.9869 deg
Mean anomaly:     060.0419 deg
Mean motion:   15.68243902 rev/day
Decay rate:     1.4933e-04 rev/day^2
Epoch rev:           16093
Checksum:              331

Satellite: CP3
Catalog number: 31129
Epoch time:      09285.72233495
Element set:     256
Inclination:      097.9732 deg
RA of node:       333.0906 deg
Eccentricity:    0.0101422
Arg of perigee:   281.3103 deg
Mean anomaly:     077.6706 deg
Mean motion:   14.52168510 rev/day
Decay rate:        8.4e-07 rev/day^2
Epoch rev:           13194
Checksum:              286

Satellite: CO-65
Catalog number: 32785
Epoch time:      09285.30680968
Element set:     495
Inclination:      097.9329 deg
RA of node:       348.2265 deg
Eccentricity:    0.0015390
Arg of perigee:   015.1392 deg
Mean anomaly:     345.0267 deg
Mean motion:   14.81526358 rev/day
Decay rate:       1.03e-06 rev/day^2
Epoch rev:            7878
Checksum:              340

Satellite: KKS-1
Catalog number: 33493
Epoch time:      09285.88416004
Element set:     839
Inclination:      098.0667 deg
RA of node:       038.6719 deg
Eccentricity:    0.0019252
Arg of perigee:   218.5566 deg
Mean anomaly:     141.4270 deg
Mean motion:   14.80744891 rev/day
Decay rate:       2.94e-06 rev/day^2
Epoch rev:            3888
Checksum:              337

Satellite: SOHLA-1
Catalog number: 33496
Epoch time:      09285.78057358
Element set:     805
Inclination:      098.0462 deg
RA of node:       033.3042 deg
Eccentricity:    0.0005362
Arg of perigee:   271.1532 deg
Mean anomaly:     088.9059 deg
Mean motion:   14.69449682 rev/day
Decay rate:        2.5e-07 rev/day^2
Epoch rev:            3854
Checksum:              317

/EX
SB KEPS @ AMSAT  $ORB09285.W
Orbital Elements  09285.WEATHER

HR AMSAT ORBITAL ELEMENTS FOR WEATHER SATELLITES
FROM WA5QGD FORT WORTH,TX October 12, 2009
Send Subscribe/unsubscribe to KEPS at 
http://www.amsat.org/mailman/listinfo/keps
BID: ORB09285.W
TO ALL RADIO AMATEURS BT

Satellite: NOAA-10
Catalog number: 16969
Epoch time:      09285.71086079
Element set:     793
Inclination:      098.6845 deg
RA of node:       311.6785 deg
Eccentricity:    0.0011819
Arg of perigee:   211.5826 deg
Mean anomaly:     148.4643 deg
Mean motion:   14.27395459 rev/day
Decay rate:      -1.17e-06 rev/day^2
Epoch rev:           20027
Checksum:              339

Satellite: NOAA-11
Catalog number: 19531
Epoch time:      09285.31291860
Element set:     811
Inclination:      098.7810 deg
RA of node:       013.4400 deg
Eccentricity:    0.0012033
Arg of perigee:   132.0737 deg
Mean anomaly:     228.1477 deg
Mean motion:   14.14904006 rev/day
Decay rate:        5.3e-07 rev/day^2
Epoch rev:            8608
Checksum:              263

Satellite: NOAA-12
Catalog number: 21263
Epoch time:      09285.73927083
Element set:     295
Inclination:      098.7728 deg
RA of node:       293.8682 deg
Eccentricity:    0.0012546
Arg of perigee:   160.8832 deg
Mean anomaly:     199.2819 deg
Mean motion:   14.25596384 rev/day
Decay rate:       -4.0e-08 rev/day^2
Epoch rev:           95714
Checksum:              350

Satellite: MET-3/5
Catalog number: 21655
Epoch time:      09285.90126120
Element set:     666
Inclination:      082.5541 deg
RA of node:       123.3573 deg
Eccentricity:    0.0012584
Arg of perigee:   246.6040 deg
Mean anomaly:     113.3760 deg
Mean motion:   13.17020812 rev/day
Decay rate:        5.1e-07 rev/day^2
Epoch rev:           87312
Checksum:              265

Satellite: MET-2/21
Catalog number: 22782
Epoch time:      09284.60467461
Element set:    0588
Inclination:      082.5436 deg
RA of node:       089.6615 deg
Eccentricity:    0.0023078
Arg of perigee:   023.7028 deg
Mean anomaly:     336.5178 deg
Mean motion:   13.83638452 rev/day
Decay rate:        1.0e-08 rev/day^2
Epoch rev:           81370
Checksum:              317

